Location: Gwatt
(46.7204°N, 7.6223°E)
Time: 01:47:49
(UTC+00:00)

Transit 2A - Pass Details

Date: 30 January 2021
Orbit: 601 x 958 km, 66.7° (Epoch: 07 March)

Event Time Altitude Azimuth Distance (km) Brightness Sun altitude
Rises 00:43:52 0° 173° (S) 3,496 - -58.3°
Reaches altitude 10° 00:46:57 10° 159° (SSE) 2,506 - -58.1°
Maximum altitude 00:51:19 23° 110° (ESE) 1,707 - -57.7°
Drops below altitude 10° 00:55:25 10° 60° (ENE) 2,337 - -57.3°
Sets 00:58:09 0° 46° (NE) 3,202 - -57.0°
